Estación de Galvarino

Ultimos registro cada 15 minutos 53
Estación Fecha / Hora Temperatura Humedad Lluvia Velocidad Dirección Radiación Presion
53 Galvarino 08-05-2026 13:00 10,1 95,5 0 0 156 155,6 995,5
52 Galvarino 08-05-2026 12:45 10 94,5 0 0 149 104,4 995,9
51 Galvarino 08-05-2026 12:30 10 93,3 0 0 139 129,4 995,9
50 Galvarino 08-05-2026 12:15 10 93,4 0 0 133 210,6 995,9
49 Galvarino 08-05-2026 12:00 10 94,4 0 0,5 136 265,6 995,9
48 Galvarino 08-05-2026 11:45 9,5 95,1 0 0,5 147 176,9 996
47 Galvarino 08-05-2026 11:30 9,1 95,4 0 1,5 153 214,4 995,8
46 Galvarino 08-05-2026 11:15 8,6 95,6 0 1,5 152 146,9 995,5
45 Galvarino 08-05-2026 11:00 8,8 94,9 0 1,5 150 108,1 995,7
44 Galvarino 08-05-2026 10:45 8,5 95,3 0 2,5 161 164,4 995,5
43 Galvarino 08-05-2026 10:30 8,4 96,6 0 2 167 183,1 995,6
42 Galvarino 08-05-2026 10:15 8,3 96,5 0 2 166 218,1 995,8
41 Galvarino 08-05-2026 10:00 7,9 96,7 0 1,5 160 89,4 996,1
40 Galvarino 08-05-2026 09:45 7,8 96,6 0 1,5 160 88,1 996,3
39 Galvarino 08-05-2026 09:30 7,6 96,4 0 1,5 159 45,6 996,2
38 Galvarino 08-05-2026 09:15 7,6 96,6 0 2 159 53,1 996
37 Galvarino 08-05-2026 09:00 7,4 96,9 0 1,5 160 44,4 995,7
36 Galvarino 08-05-2026 08:45 7,3 96,8 0 2 164 21,9 995,7
35 Galvarino 08-05-2026 08:30 7,3 97,2 0 1 159 13,1 995,5
34 Galvarino 08-05-2026 08:15 7,3 97,2 0,2 1 145 4,4 995,6
33 Galvarino 08-05-2026 08:00 7,3 97,3 0 1 145 1,9 995,3
32 Galvarino 08-05-2026 07:45 7,3 97,3 0 0,5 139 0,6 995,2
31 Galvarino 08-05-2026 07:30 7,3 97,2 0 0,5 145 0,6 994,9
30 Galvarino 08-05-2026 07:15 7,2 97 0 0 149 0,6 994,8
29 Galvarino 08-05-2026 07:00 7,3 96,9 0 0 142 0,6 994,7
28 Galvarino 08-05-2026 06:45 7,3 96,5 0,2 1 152 0,6 994,6
27 Galvarino 08-05-2026 06:30 7,3 96,2 0 1,5 164 0,6 994,7
26 Galvarino 08-05-2026 06:15 7,3 96 0 1,5 171 0,6 994,5
25 Galvarino 08-05-2026 06:00 7,3 95,9 0 2,5 168 0,6 994,2
24 Galvarino 08-05-2026 05:45 7,3 96,2 0 1,5 157 0,6 994,3
23 Galvarino 08-05-2026 05:30 7,4 95,9 0,2 2 164 0,6 994,4
22 Galvarino 08-05-2026 05:15 7,4 95,9 0 2 166 0,6 994,3
21 Galvarino 08-05-2026 05:00 7,3 95,9 0 2 168 0,6 994,1
20 Galvarino 08-05-2026 04:45 7,4 95,3 0 2 174 0,6 993,8
19 Galvarino 08-05-2026 04:30 7,3 95,8 0 1,5 163 0,6 994
18 Galvarino 08-05-2026 04:15 7,3 95,7 0 1,5 171 0,6 994,3
17 Galvarino 08-05-2026 04:00 7,3 95,2 0 1,5 157 0,6 994,5
16 Galvarino 08-05-2026 03:45 7,5 93,9 0,2 1,5 171 0,6 994,7
15 Galvarino 08-05-2026 03:30 7,4 93,1 0 1,5 175 0,6 994,5
14 Galvarino 08-05-2026 03:15 7,3 93,3 0 1 177 0,6 994,6
13 Galvarino 08-05-2026 03:00 7,3 92,6 0 2 170 0,6 995,1
12 Galvarino 08-05-2026 02:45 7,2 93,4 0 1,5 170 0,6 995,4
11 Galvarino 08-05-2026 02:30 7,2 93,7 0 1,5 164 0,6 995,7
10 Galvarino 08-05-2026 02:15 7,2 93,3 0 1,5 170 0,6 995,4
9 Galvarino 08-05-2026 02:00 7,2 92,7 0 1,5 164 0,6 996,1
8 Galvarino 08-05-2026 01:45 7,3 91,7 0 2 173 0,6 996
7 Galvarino 08-05-2026 01:30 7,2 91 0 2,5 171 0,6 996,2
6 Galvarino 08-05-2026 01:15 7,1 91,8 0 2 174 0,6 996,3
5 Galvarino 08-05-2026 01:00 7,2 91,4 0 1,5 177 0,6 996,6
4 Galvarino 08-05-2026 00:45 7,1 92,7 0 1 177 0,6 997,4
3 Galvarino 08-05-2026 00:30 7 93,7 0 0,5 173 0,6 997,1
2 Galvarino 08-05-2026 00:15 6,9 94,3 0 1 175 0,6 997,8
1 Galvarino 08-05-2026 00:00 6,9 95,4 0 2 170 0,6 997,7